Time,TemperatureF,DewpointF,PressureIn,WindDirection,WindDirectionDegrees,WindSpeedMPH,WindSpeedGustMPH,Humidity,HourlyPrecipIn,Conditions,Clouds,dailyrainin,SoftwareType,DateUTC
2013-10-08 00:21:00,52.0,47.0,29.98,South,183,0.0,4.0,83,-99.99,,,-99.99,,2013-10-08 07:21:00,
2013-10-08 00:52:00,52.0,47.0,29.98,SSE,153,0.0,4.0,84,-99.99,,,-99.99,,2013-10-08 07:52:00,
2013-10-08 01:12:00,52.0,47.0,29.98,South,172,0.0,2.0,83,-99.99,,,-99.99,,2013-10-08 08:12:00,
2013-10-08 01:21:00,52.0,47.0,29.99,SSE,161,1.0,5.0,83,-99.99,,,-99.99,,2013-10-08 08:21:00,
2013-10-08 01:52:00,52.0,47.0,29.98,SSE,162,1.0,9.0,82,-99.99,,,-99.99,,2013-10-08 08:52:00,
2013-10-08 02:21:00,52.0,47.0,29.98,SE,143,0.0,3.0,82,-99.99,,,-99.99,,2013-10-08 09:21:00,
2013-10-08 02:53:00,52.0,47.0,29.98,South,186,0.0,2.0,83,-99.99,,,-99.99,,2013-10-08 09:53:00,
2013-10-08 03:23:00,51.0,46.0,29.97,SSW,193,0.0,2.0,83,-99.99,,,-99.99,,2013-10-08 10:23:00,
2013-10-08 03:53:00,51.0,46.0,29.97,SSE,165,3.0,5.0,83,-99.99,,,-99.99,,2013-10-08 10:53:00,
2013-10-08 04:21:00,51.0,46.0,29.97,South,183,0.0,4.0,82,-99.99,,,-99.99,,2013-10-08 11:21:00,
2013-10-08 04:42:00,51.0,46.0,29.97,SSW,192,0.0,3.0,82,-99.99,,,-99.99,,2013-10-08 11:42:00,
2013-10-08 04:52:00,51.0,46.0,29.97,SSE,161,1.0,4.0,82,-99.99,,,-99.99,,2013-10-08 11:52:00,
2013-10-08 05:12:00,51.0,46.0,29.97,SSE,157,0.0,3.0,82,-99.99,,,-99.99,,2013-10-08 12:12:00,
2013-10-08 05:21:00,51.0,46.0,29.96,SSE,165,2.0,5.0,83,-99.99,,,-99.99,,2013-10-08 12:21:00,
2013-10-08 05:52:00,50.0,45.0,29.95,South,180,0.0,3.0,84,-99.99,,,-99.99,,2013-10-08 12:52:00,
2013-10-08 06:11:00,50.0,45.0,29.96,SSE,157,0.0,1.0,83,-99.99,,,-99.99,,2013-10-08 13:11:00,
2013-10-08 06:22:00,50.0,45.0,29.95,SSW,210,0.0,3.0,83,-99.99,,,-99.99,,2013-10-08 13:22:00,
2013-10-08 06:42:00,50.0,45.0,29.95,South,187,0.0,1.0,84,-99.99,,,-99.99,,2013-10-08 13:42:00,
2013-10-08 06:52:00,50.0,46.0,29.95,South,187,0.0,2.0,86,-99.99,,,-99.99,,2013-10-08 13:52:00,
2013-10-08 07:21:00,49.0,45.0,29.95,SSW,202,1.0,4.0,87,-99.99,,,-99.99,,2013-10-08 14:21:00,
2013-10-08 07:52:00,50.0,46.0,29.95,West,259,0.0,3.0,86,-99.99,,,-99.99,,2013-10-08 14:52:00,
2013-10-08 08:22:00,50.0,47.0,29.95,West,259,0.0,1.0,90,-99.99,,,-99.99,,2013-10-08 15:22:00,
2013-10-08 08:44:00,50.0,48.0,29.95,SSE,159,0.0,2.0,92,-99.99,,,-99.99,,2013-10-08 15:44:00,
2013-10-08 08:53:00,50.0,48.0,29.95,SSE,159,0.0,1.0,92,-99.99,,,-99.99,,2013-10-08 15:53:00,
2013-10-08 09:13:00,50.0,48.0,29.95,SSE,159,1.0,2.0,92,-99.99,,,-99.99,,2013-10-08 16:13:00,
2013-10-08 09:23:00,50.0,48.0,29.95,SSE,161,0.0,1.0,93,-99.99,,,-99.99,,2013-10-08 16:23:00,
2013-10-08 09:42:00,50.0,48.0,29.94,SSE,161,0.0,1.0,93,-99.99,,,-99.99,,2013-10-08 16:42:00,
2013-10-08 09:53:00,51.0,49.0,29.94,SSE,161,0.0,1.0,93,-99.99,,,-99.99,,2013-10-08 16:53:00,
2013-10-08 10:22:00,52.0,47.0,29.95,SSW,195,0.0,4.0,84,-99.99,,,-99.99,,2013-10-08 17:22:00,
2013-10-08 10:52:00,52.0,48.0,29.95,WNW,302,1.0,4.0,87,-99.99,,,-99.99,,2013-10-08 17:52:00,
2013-10-08 11:22:00,51.0,47.0,29.95,WSW,254,0.0,0.0,87,-99.99,,,-99.99,,2013-10-08 18:22:00,
2013-10-08 11:41:00,50.0,47.0,29.94,WNW,284,0.0,2.0,88,-99.99,,,-99.99,,2013-10-08 18:41:00,
2013-10-08 11:52:00,50.0,47.0,29.95,WNW,285,1.0,6.0,88,-99.99,,,-99.99,,2013-10-08 18:52:00,
2013-10-08 12:11:00,51.0,48.0,29.95,NNW,328,0.0,4.0,88,-99.99,,,-99.99,,2013-10-08 19:11:00,
2013-10-08 12:21:00,52.0,48.0,29.96,NE,46,2.0,4.0,87,-99.99,,,-99.99,,2013-10-08 19:21:00,
2013-10-08 12:42:00,52.0,48.0,29.95,NE,53,1.0,3.0,86,-99.99,,,-99.99,,2013-10-08 19:42:00,
2013-10-08 12:52:00,52.0,48.0,29.96,ENE,75,5.0,11.0,85,-99.99,,,-99.99,,2013-10-08 19:52:00,
2013-10-08 13:22:00,49.0,46.0,29.96,NE,52,0.0,5.0,89,-99.99,,,-99.99,,2013-10-08 20:22:00,
2013-10-08 13:42:00,50.0,47.0,29.96,ENE,64,0.0,6.0,90,-99.99,,,-99.99,,2013-10-08 20:42:00,
2013-10-08 13:52:00,51.0,48.0,29.96,NE,56,0.0,4.0,88,-99.99,,,-99.99,,2013-10-08 20:52:00,
2013-10-08 14:21:00,53.0,47.0,29.95,NNW,341,0.0,4.0,79,-99.99,,,-99.99,,2013-10-08 21:21:00,
2013-10-08 14:44:00,54.0,45.0,29.95,NE,34,0.0,3.0,72,-99.99,,,-99.99,,2013-10-08 21:44:00,
2013-10-08 14:54:00,54.0,46.0,29.95,NE,42,3.0,6.0,75,-99.99,,,-99.99,,2013-10-08 21:54:00,
2013-10-08 15:24:00,54.0,46.0,29.95,NNW,327,1.0,3.0,74,-99.99,,,-99.99,,2013-10-08 22:24:00,
2013-10-08 15:44:00,55.0,47.0,29.95,NNW,344,0.0,2.0,74,-99.99,,,-99.99,,2013-10-08 22:44:00,
2013-10-08 15:56:00,54.0,47.0,29.96,NNE,21,0.0,4.0,77,-99.99,,,-99.99,,2013-10-08 22:56:00,
2013-10-08 16:22:00,54.0,43.0,29.97,NW,306,4.0,10.0,67,-99.99,,,-99.99,,2013-10-08 23:22:00,
2013-10-08 16:52:00,54.0,43.0,29.97,NNW,338,4.0,9.0,66,-99.99,,,-99.99,,2013-10-08 23:52:00,
2013-10-08 17:12:00,54.0,43.0,29.97,NNW,341,2.0,12.0,65,-99.99,,,-99.99,,2013-10-09 00:12:00,
2013-10-08 17:22:00,54.0,44.0,29.97,NNW,343,3.0,18.0,68,-99.99,,,-99.99,,2013-10-09 00:22:00,
2013-10-08 17:42:00,53.0,42.0,29.97,NNW,332,6.0,16.0,67,-99.99,,,-99.99,,2013-10-09 00:42:00,
2013-10-08 17:52:00,52.0,41.0,29.97,NNW,335,0.0,10.0,66,-99.99,,,-99.99,,2013-10-09 00:52:00,
2013-10-08 18:21:00,52.0,42.0,29.97,NNW,336,1.0,6.0,69,-99.99,,,-99.99,,2013-10-09 01:21:00,
2013-10-08 18:43:00,51.0,42.0,29.98,WNW,298,1.0,7.0,70,-99.99,,,-99.99,,2013-10-09 01:43:00,
2013-10-08 18:52:00,50.0,42.0,29.99,NW,326,1.0,3.0,73,-99.99,,,-99.99,,2013-10-09 01:52:00,
2013-10-08 19:22:00,49.0,42.0,30.00,NW,313,1.0,3.0,77,-99.99,,,-99.99,,2013-10-09 02:22:00,
2013-10-08 19:42:00,48.0,42.0,30.00,NW,313,0.0,2.0,79,-99.99,,,-99.99,,2013-10-09 02:42:00,
2013-10-08 19:52:00,48.0,42.0,30.01,NW,313,0.0,0.0,80,-99.99,,,-99.99,,2013-10-09 02:52:00,
2013-10-08 20:23:00,47.0,42.0,30.01,NW,313,0.0,0.0,83,-99.99,,,-99.99,,2013-10-09 03:23:00,
2013-10-08 20:44:00,47.0,42.0,30.01,NW,313,0.0,1.0,84,-99.99,,,-99.99,,2013-10-09 03:44:00,
2013-10-08 20:54:00,46.0,42.0,30.02,NW,313,0.0,0.0,87,-99.99,,,-99.99,,2013-10-09 03:54:00,
2013-10-08 21:14:00,46.0,42.0,30.02,NW,313,0.0,0.0,87,-99.99,,,-99.99,,2013-10-09 04:14:00,
2013-10-08 21:23:00,46.0,42.0,30.02,NW,313,0.0,1.0,87,-99.99,,,-99.99,,2013-10-09 04:23:00,
2013-10-08 21:44:00,46.0,42.0,30.03,NW,313,0.0,0.0,86,-99.99,,,-99.99,,2013-10-09 04:44:00,
2013-10-08 21:54:00,46.0,42.0,30.03,NW,313,0.0,2.0,87,-99.99,,,-99.99,,2013-10-09 04:54:00,
2013-10-08 22:22:00,46.0,43.0,30.04,NW,313,0.0,0.0,88,-99.99,,,-99.99,,2013-10-09 05:22:00,
2013-10-08 22:52:00,46.0,42.0,30.05,NW,313,0.0,2.0,87,-99.99,,,-99.99,,2013-10-09 05:52:00,
2013-10-08 23:12:00,46.0,42.0,30.05,NW,313,0.0,0.0,87,-99.99,,,-99.99,,2013-10-09 06:12:00,
2013-10-08 23:22:00,45.0,42.0,30.05,NW,313,0.0,0.0,88,-99.99,,,-99.99,,2013-10-09 06:22:00,
2013-10-08 23:42:00,45.0,42.0,30.05,NW,313,0.0,0.0,90,-99.99,,,-99.99,,2013-10-09 06:42:00,
2013-10-08 23:52:00,44.0,42.0,30.05,NW,313,0.0,0.0,91,-99.99,,,-99.99,,2013-10-09 06:52:00,